EW1088 Weather Reports


Display with metric or nautical units.
time (UTC)temp
F
wind
direction
speed
MPH
gust
MPH
rain 1hr
in
rain 24hr
in
rain mn
in
humidity
%
barometer
mb
20260505011217 52 196 7.0 18.0 0.00 0.36 0.21 63 1006.0
20260505010721 53 151 9.0 19.0 0.00 0.36 0.21 62 1005.9
20260505010717 53 158 8.0 18.0 0.00 0.36 0.21 63 1005.8
20260505005717 53 174 11.0 26.0 0.00 0.36 0.21 63 1005.9
20260505005212 53 181 10.0 26.0 0.00 0.36 0.21 62 1006.1
20260505004717 53 151 10.0 20.0 0.00 0.36 0.21 63 1006.6
20260505004713 53 134 9.0 20.0 0.00 0.36 0.21 62 1006.3
20260505003715 53 179 6.0 13.0 0.00 0.36 0.21 66 1007.0
20260505003711 53 189 8.0 19.0 0.00 0.36 0.21 65 1006.9
20260505002711 53 205 5.0 11.0 0.00 0.36 0.21 66 1007.1
20260505002211 53 173 5.0 14.0 0.00 0.36 0.21 67 1007.1
20260505001709 52 166 6.0 14.0 0.00 0.36 0.21 67 1007.3
20260505001204 53 160 5.0 11.0 0.00 0.36 0.21 67 1007.4
20260505000705 53 201 5.0 13.0 0.00 0.36 0.21 67 1007.4
20260505000208 54 213 6.0 14.0 0.00 0.36 0.21 64 1007.3
20260505000204 54 193 5.0 13.0 0.00 0.36 0.21 67 1007.4
20260504235205 55 211 7.0 18.0 0.00 0.36 0.21 63 1007.4
20260504234704 55 197 8.0 19.0 0.00 0.36 0.21 61 1007.4
20260504234204 55 168 8.0 19.0 0.00 0.36 0.21 60 1007.3
20260504233707 55 166 8.0 18.0 0.00 0.36 0.21 61 1007.4
20260504233703 54 116 7.0 21.0 0.00 0.36 0.21 62 1007.3
20260504232702 54 208 7.0 21.0 0.00 0.36 0.21 63 1007.5
20260504232206 53 134 5.0 15.0 0.00 0.36 0.21 65 1007.7
20260504232202 54 128 7.0 17.0 0.00 0.36 0.21 63 1007.6
20260504231202 53 158 5.0 14.0 0.00 0.36 0.21 67 1007.8
20260504230702 52 94 5.0 11.0 0.00 0.36 0.21 70 1008.0
20260504230202 51 33 4.0 10.0 0.00 0.36 0.21 73 1008.0
20260504225702 51 135 6.0 13.0 0.00 0.36 0.21 76 1008.3
20260504225202 50 120 7.0 13.0 0.00 0.36 0.21 75 1008.4
20260504224702 50 92 6.0 15.0 0.00 0.36 0.21 75 1008.5
20260504224202 50 62 6.0 15.0 0.00 0.36 0.21 74 1008.5
20260504223706 49 102 5.0 13.0 0.00 0.36 0.21 77 1008.8
20260504223702 49 91 6.0 13.0 0.00 0.36 0.21 75 1008.8
20260504222700 48 60 5.0 10.0 0.00 0.36 0.21 79 1008.8
20260504222200 48 142 5.0 12.0 0.00 0.36 0.21 80 1008.9
20260504221703 48 66 7.0 13.0 0.00 0.36 0.21 81 1009.2
20260504221659 48 110 6.0 12.0 0.00 0.36 0.21 80 1009.0
20260504220658 47 77 6.0 13.0 0.00 0.36 0.21 82 1009.2
20260504220158 47 47 6.0 13.0 0.00 0.36 0.21 84 1009.4
20260504215657 47 68 7.0 14.0 0.00 0.36 0.21 84 1009.6
20260504215158 46 105 7.0 16.0 0.00 0.36 0.21 86 1009.6
20260504214659 46 64 7.0 16.0 0.00 0.36 0.21 86 1009.8
20260504214158 46 77 6.0 14.0 0.00 0.36 0.21 87 1009.9
20260504213654 46 104 6.0 16.0 0.00 0.36 0.21 87 1009.9
20260504213154 45 91 7.0 16.0 0.00 0.36 0.21 88 1010.0
20260504212653 45 62 7.0 14.0 0.00 0.36 0.21 88 1010.1
20260504212159 45 70 6.0 15.0 0.00 0.36 0.21 89 1010.4
20260504212154 45 79 6.0 12.0 0.00 0.36 0.21 89 1010.3
20260504211154 45 106 7.0 15.0 0.00 0.36 0.21 89 1010.4
20260504210654 44 97 6.0 13.0 0.00 0.36 0.21 89 1010.5
20260504210158 44 37 6.0 13.0 0.00 0.36 0.21 90 1010.7
20260504210154 44 75 6.0 13.0 0.00 0.36 0.21 89 1010.6
20260504205154 44 87 6.0 14.0 0.01 0.36 0.21 90 1011.0
20260504204654 44 120 7.0 14.0 0.01 0.36 0.21 90 1011.1
20260504204158 44 79 5.0 14.0 0.01 0.36 0.21 90 1011.3
20260504204154 44 145 6.0 14.0 0.01 0.36 0.21 90 1011.2
20260504203155 44 100 5.0 13.0 0.01 0.36 0.21 90 1011.5
20260504202654 44 60 5.0 13.0 0.01 0.36 0.21 90 1011.4
20260504202158 44 72 5.0 11.0 0.01 0.36 0.21 91 1011.9
20260504202154 44 51 5.0 11.0 0.01 0.36 0.21 91 1011.7
20260504201154 43 36 5.0 11.0 0.01 0.36 0.21 91 1011.9
20260504200653 43 38 5.0 10.0 0.01 0.36 0.21 91 1012.1
20260504200154 43 77 5.0 11.0 0.01 0.36 0.21 91 1012.3
20260504195650 43 104 5.0 11.0 0.01 0.36 0.21 92 1012.2
20260504195154 43 98 5.0 10.0 0.00 0.35 0.20 92 1012.5
20260504195149 43 112 4.0 8.0 0.00 0.35 0.20 92 1012.4
20260504194144 43 121 5.0 10.0 0.00 0.35 0.20 92 1012.6
20260504193649 42 62 5.0 11.0 0.00 0.35 0.20 92 1012.6
20260504193643 43 108 5.0 11.0 0.00 0.35 0.20 92 1012.6
20260504192639 42 30 5.0 10.0 0.00 0.35 0.20 93 1012.8
20260504192139 42 75 5.0 13.0 0.00 0.35 0.20 92 1013.0
20260504191638 42 88 5.0 13.0 0.00 0.35 0.20 92 1013.0
20260504191138 42 87 4.0 10.0 0.00 0.35 0.20 92 1013.1
20260504190638 42 114 4.0 8.0 0.01 0.35 0.20 92 1013.3
20260504190134 42 125 4.0 14.0 0.01 0.35 0.20 92 1013.4
20260504185633 42 118 6.0 17.0 0.01 0.35 0.20 92 1013.1
20260504185136 42 85 6.0 17.0 0.01 0.35 0.20 92 1013.1
20260504185132 42 125 5.0 9.0 0.01 0.35 0.20 92 1013.2
20260504184132 42 56 4.0 13.0 0.01 0.35 0.20 92 1013.3
20260504183636 42 95 4.0 8.0 0.01 0.35 0.20 93 1013.5
20260504183632 42 37 4.0 13.0 0.01 0.35 0.20 92 1013.4
20260504183237 42 91 5.0 11.0 0.01 0.35 0.20 92 1013.7
20260504182131 42 47 7.0 13.0 0.01 0.35 0.20 92 1013.6
20260504181631 42 47 7.0 13.0 0.02 0.35 0.20 92 1013.7
20260504181132 42 75 6.0 13.0 0.02 0.35 0.20 92 1013.9
20260504180632 42 76 5.0 12.0 0.02 0.34 0.19 93 1013.9
20260504180131 42 99 6.0 12.0 0.02 0.34 0.19 92 1013.9
20260504175631 42 24 5.0 13.0 0.02 0.34 0.19 92 1014.0
20260504175131 41 85 4.0 13.0 0.02 0.34 0.19 93 1014.2
20260504174631 41 98 4.0 8.0 0.02 0.34 0.19 93 1014.2
20260504174130 41 69 5.0 11.0 0.03 0.34 0.19 93 1014.3
20260504173632 41 66 5.0 11.0 0.03 0.34 0.19 93 1014.2
20260504173134 41 69 5.0 13.0 0.03 0.34 0.19 93 1014.3
20260504173130 41 47 4.0 10.0 0.03 0.34 0.19 93 1014.3
20260504172131 41 60 6.0 13.0 0.03 0.34 0.19 93 1014.4
20260504171630 41 103 4.0 13.0 0.02 0.33 0.18 93 1014.4
20260504171134 41 45 4.0 10.0 0.01 0.32 0.17 93 1014.5
20260504171130 41 62 5.0 10.0 0.02 0.33 0.18 93 1014.4
20260504170130 41 84 4.0 9.0 0.01 0.32 0.17 93 1014.5
20260504160127 40 82 4.0 11.0 0.02 0.31 0.16 94 1015.0
20260504151121 40 138 3.0 10.0 0.02 0.30 0.15 95 1015.2
20260504150618 40 140 3.0 10.0 0.03 0.30 0.15 95 1015.0
20260504150118 40 88 2.0 7.0 0.02 0.29 0.15 95 1015.0
20260504141115 40 33 4.0 9.0 0.02 0.28 0.13 94 1015.6
20260504140615 40 38 3.0 7.0 0.02 0.27 0.12 94 1015.5
20260504140115 40 99 3.0 7.0 0.02 0.27 0.12 94 1015.6
20260504130613 40 77 2.0 6.0 0.02 0.25 0.10 94 1015.7
20260504130113 40 97 1.0 6.0 0.02 0.25 0.10 94 1015.9
20260504120107 40 56 3.0 8.0 0.03 0.23 0.08 94 1016.1
20260504110553 40 67 2.0 7.0 0.02 0.20 0.05 94 1016.2
20260504110549 40 123 3.0 7.0 0.02 0.20 0.05 94 1016.2
20260504110156 40 115 2.0 7.0 0.02 0.20 0.05 94 1016.2
20260504100539 40 133 3.0 8.0 0.01 0.18 0.03 94 1016.5
20260504081515 41 78 4.0 10.0 0.01 0.15 0.00 93 1016.6
20260504081015 41 67 4.0 10.0 0.01 0.15 0.00 93 1016.6
20260504080511 41 53 3.0 9.0 0.01 0.15 0.00 94 1016.6
20260504050443 42 152 1.0 4.0 0.02 0.09 0.09 92 1016.8
20260504045941 42 94 1.0 5.0 0.03 0.09 0.09 92 1016.8
20260504045441 42 48 1.0 5.0 0.03 0.09 0.09 91 1016.8
20260504044940 42 97 1.0 7.0 0.04 0.09 0.09 91 1016.9
20260504044438 42 94 1.0 7.0 0.04 0.09 0.09 91 1017.0
20260504043939 42 88 1.0 3.0 0.04 0.09 0.09 91 1017.0
20260504043435 42 88 3.0 8.0 0.04 0.08 0.08 90 1017.1
20260504042935 42 96 3.0 8.0 0.04 0.08 0.08 90 1017.0
20260504042436 42 1 2.0 6.0 0.05 0.08 0.08 90 1017.1
20260504041934 42 1 2.0 6.0 0.04 0.07 0.07 90 1017.1
20260504041437 42 68 2.0 7.0 0.04 0.07 0.07 89 1017.1
20260504041433 42 103 2.0 7.0 0.04 0.07 0.07 90 1017.1
20260504040433 42 89 1.0 5.0 0.05 0.07 0.07 89 1017.2
20260504035933 42 137 1.0 3.0 0.04 0.06 0.06 89 1017.3
20260504035430 43 137 1.0 3.0 0.03 0.05 0.05 87 1017.3
20260504034930 43 137 1.0 4.0 0.04 0.05 0.05 86 1017.3
20260504034432 43 166 4.0 9.0 0.04 0.05 0.05 83 1017.3
20260504034428 43 141 3.0 8.0 0.04 0.05 0.05 84 1017.3
20260504033429 43 155 5.0 10.0 0.03 0.04 0.04 84 1017.3
20260504032929 43 205 4.0 10.0 0.04 0.04 0.04 83 1017.4
20260504032535 44 101 2.0 7.0 0.03 0.03 0.03 86 1017.4
20260504032434 44 110 2.0 6.0 0.03 0.03 0.03 86 1017.4
20260504032429 43 96 2.0 9.0 0.03 0.03 0.03 85 1017.4
20260504030927 44 111 2.0 7.0 0.03 0.03 0.03 84 1017.4
20260504030427 44 96 3.0 8.0 0.02 0.02 0.02 85 1017.5
20260504025924 44 106 3.0 8.0 0.02 0.02 0.02 83 1017.4
20260504025424 44 79 2.0 4.0 0.02 0.02 0.02 83 1017.4
20260504024925 45 59 2.0 5.0 0.01 0.01 0.01 81 1017.5
20260504024425 45 108 3.0 8.0 0.01 0.01 0.01 80 1017.5
20260504023929 45 137 4.0 9.0 0.01 0.01 0.01 75 1017.4
20260504023925 45 158 3.0 8.0 0.01 0.01 0.01 76 1017.4
20260504022929 46 99 6.0 11.0 0.00 0.00 0.00 73 1017.4
20260504022925 45 1 5.0 10.0 0.00 0.00 0.00 75 1017.4
20260504021925 46 36 5.0 11.0 0.00 0.00 0.00 71 1017.4
20260504021424 46 126 3.0 8.0 0.00 0.00 0.00 71 1017.4
20260504020925 46 115 3.0 10.0 0.00 0.00 0.00 71 1017.3
20260504020429 47 140 5.0 10.0 0.00 0.00 0.00 66 1017.4
20260504020424 47 144 4.0 10.0 0.00 0.00 0.00 68 1017.4
20260504015425 47 151 4.0 10.0 0.00 0.00 0.00 64 1017.5
20260504014924 47 173 5.0 14.0 0.00 0.00 0.00 63 1017.4
20260504014424 48 157 6.0 14.0 0.00 0.00 0.00 61 1017.4
20260504013924 48 191 5.0 12.0 0.00 0.00 0.00 62 1017.4
20260504013424 48 170 5.0 12.0 0.00 0.00 0.00 61 1017.5
20260504012929 48 137 6.0 16.0 0.00 0.00 0.00 61 1017.5
20260504012925 48 166 6.0 13.0 0.00 0.00 0.00 61 1017.5
20260504011925 48 142 6.0 16.0 0.00 0.00 0.00 59 1017.5